Location: Unspecified
(0.0000°N, 0.0000°E)
Time: 23:08:59
(UTC+00:00)

ISS - Pass Details

Date: 16 April 2018
Orbit: 402 x 407 km, 51.6° (Epoch: 27 April)

Event Time Altitude Azimuth Distance (km) Brightness Sun altitude
Rises 19:40:26 0° 332° (NNW) 2,311 0.6 -24.7°
Reaches altitude 10° 19:42:32 10° 337° (NNW) 1,455 -0.6 -25.2°
Enters shadow 19:43:10 15° 340° (NNW) 1,203 -1.1 -25.4°
